Wind_Speed
26 26 26 26 26 26 26 26 26 25 25 25 24 24 24 23 22 21 20 20 19 18 18 18 17 17 17 18 18 17 17 16 15 14 13 13 13 13 13 13 13 13 14 14 13 13 13 12 11 9 4 4 9 11 12 12 14 15 16 18 18 19 21 21 20 21 23 26 27 27 26 24 22 21 21 21 21 20 20 19 19 19 19 18 19 20 20 20
28 28 28 29 29 28 29 28 28 28 27 27 27 27 26 25 25 24 23 22 21 20 20 19 18 17 17 18 19 18 17 16 16 15 14 12 12 12 12 12 11 11 11 12 12 11 11 10 10 9 8 4 2 8 13 14 15 18 19 19 20 20 21 21 19 19 21 23 25 27 26 25 23 22 22 22 22 21 20 20 19 19 19 18 18 20 20 19
30 31 31 31 31 31 31 31 31 30 30 29 29 29 29 28 27 26 25 24 23 22 22 21 20 19 18 18 19 20 19 17 16 16 15 14 12 11 11 11 11 10 10 10 10 10 10 9 9 9 8 7 4 3 10 16 18 20 22 21 20 21 21 20 19 19 19 20 23 25 26 25 24 22 22 22 22 21 20 20 20 19 19 17 17 17 16 16
33 33 33 34 34 33 33 33 33 32 32 31 31 30 30 30 29 28 27 26 25 24 23 23 22 20 19 18 19 21 22 19 16 16 16 16 14 12 11 11 11 10 10 9 9 9 9 9 9 8 8 7 6 5 5 10 17 21 23 23 21 20 19 20 20 21 20 19 21 24 24 23 23 22 22 21 20 20 20 19 18 17 16 15 14 14 13 14
35 35 35 35 35 35 34 34 33 33 32 31 31 30 30 30 30 29 28 27 26 25 24 23 23 22 20 19 19 21 24 22 18 17 17 17 16 14 12 11 11 11 10 9 8 8 8 9 9 8 7 7 8 8 7 6 9 16 21 25 24 23 22 22 23 23 23 22 21 23 22 21 21 21 20 19 19 18 17 16 14 12 11 10 10 10 10 11
37 37 37 36 36 35 35 34 33 33 32 31 31 30 30 29 29 29 29 28 27 26 25 24 23 23 21 20 20 20 24 25 22 18 18 19 18 17 15 13 11 11 11 10 9 8 8 8 9 9 8 8 8 9 10 9 5 7 14 19 22 24 24 23 24 25 24 23 22 22 21 20 19 18 17 16 16 14 13 12 9 8 8 8 8 8 9 10
38 38 37 37 37 36 36 35 35 35 34 33 33 32 32 31 30 30 30 29 28 27 26 25 24 23 23 22 21 21 23 26 25 20 19 20 20 19 18 17 14 12 12 11 11 10 8 8 9 9 9 9 9 9 10 11 8 2 6 12 18 22 22 23 24 24 23 21 21 20 18 17 16 14 13 13 13 11 11 10 9 8 7 7 8 9 9 9
39 39 39 39 39 39 39 39 38 38 38 37 36 36 35 34 34 33 32 32 31 30 29 27 26 25 24 23 22 22 22 26 26 24 22 21 21 22 20 19 18 15 14 13 12 12 10 9 8 10 9 9 9 9 10 11 10 7 2 4 13 21 23 24 22 20 19 18 17 16 15 14 12 12 11 12 11 10 11 11 10 8 7 8 9 9 9 9
42 42 42 42 42 43 43 42 42 42 41 41 40 40 39 38 37 37 36 35 34 34 33 31 30 28 27 25 24 23 22 25 27 26 26 23 21 23 23 22 21 19 17 16 15 13 12 11 9 10 10 10 9 9 9 10 10 9 7 4 4 13 20 21 18 16 16 16 14 13 12 11 11 11 11 11 12 13 13 12 11 10 10 9 9 9 8 9
43 44 44 44 45 45 45 45 45 45 45 44 44 43 43 42 41 41 40 39 38 37 36 35 34 33 31 29 28 25 24 25 26 27 29 27 23 23 25 24 23 22 21 19 18 15 14 13 11 10 10 10 10 9 9 10 10 10 9 8 6 3 10 15 16 15 15 14 13 11 11 11 11 11 10 11 14 15 15 14 12 12 12 11 10 9 8 9
44 44 45 45 45 45 46 46 46 46 46 46 46 45 45 44 44 43 43 43 42 41 40 39 38 37 35 34 32 29 27 27 27 27 29 30 27 24 25 26 25 25 24 22 21 19 17 15 13 12 11 11 11 10 9 9 9 10 10 9 8 6 2 8 12 14 14 13 12 11 11 11 11 10 9 11 14 16 17 16 14 14 13 12 11 9 8 8
45 46 46 46 46 47 47 47 48 48 47 47 47 47 46 46 45 45 45 44 44 44 43 42 41 40 39 38 37 34 31 30 29 29 29 31 30 27 26 27 28 27 26 25 24 23 21 18 16 13 12 11 11 11 9 8 8 9 10 9 9 7 4 2 7 10 12 12 12 12 12 12 11 10 10 11 13 15 18 17 16 15 14 14 12 9 8 8
47 48 49 49 49 49 50 50 51 51 51 50 50 50 50 49 48 47 47 46 45 45 45 44 44 43 43 42 41 38 36 34 32 31 31 31 32 31 28 27 29 30 29 27 27 26 24 22 20 16 13 13 12 12 11 9 8 7 8 9 9 8 6 3 3 6 9 11 12 11 11 12 11 11 11 11 13 14 17 18 17 16 15 14 11 8 8 9
48 49 50 51 51 51 52 52 53 53 54 53 54 54 53 53 52 51 50 50 49 48 47 46 45 45 45 45 45 43 40 38 36 35 34 34 34 34 31 29 29 31 31 30 29 28 26 24 23 20 16 14 13 13 12 11 9 7 7 7 8 8 7 6 3 2 5 8 9 9 10 10 10 10 11 11 12 13 15 16 16 16 14 13 10 7 8 11
48 48 49 49 50 50 50 51 52 53 53 54 54 54 54 54 54 54 54 53 52 51 50 49 48 47 47 47 48 46 45 42 40 40 38 37 36 36 35 32 31 32 32 32 31 30 29 27 26 24 21 17 15 15 14 12 11 8 6 5 6 6 6 6 4 2 2 4 6 7 8 10 8 7 9 11 11 12 13 14 15 15 13 11 11 10 10 13
45 45 45 45 45 45 46 47 47 48 49 50 50 51 51 52 53 53 53 53 53 53 52 52 52 50 49 49 49 49 48 46 44 44 42 41 40 39 39 36 34 33 34 34 33 32 30 29 28 27 25 22 18 17 16 13 13 11 8 6 4 4 4 5 5 4 3 2 4 5 7 8 8 7 8 10 11 11 12 13 14 14 14 13 14 14 14 15
41 40 40 40 40 40 40 41 42 43 44 44 45 46 47 47 48 48 49 50 50 51 51 52 52 52 52 52 52 51 51 49 48 47 46 45 44 43 42 40 38 36 35 34 34 34 33 31 30 29 28 26 24 21 17 14 15 14 11 8 6 4 2 4 5 5 3 3 3 4 5 5 5 5 7 8 10 11 12 13 14 15 16 16 15 17 17 18
37 36 36 37 37 37 37 38 39 40 40 41 41 42 43 44 44 45 46 46 46 46 47 48 49 49 51 53 53 54 54 52 51 50 50 48 47 46 45 44 42 40 38 36 36 37 35 33 32 30 29 29 29 25 19 15 18 17 14 11 9 7 3 1 3 3 3 3 4 4 5 4 3 3 5 6 8 10 12 14 15 17 18 18 18 18 20 20
37 36 35 35 36 36 36 36 37 37 37 38 38 39 40 41 41 42 43 43 44 44 44 45 45 44 47 49 50 53 55 54 53 53 52 51 50 49 48 48 46 44 41 39 39 39 38 36 33 31 32 33 32 29 23 19 20 20 17 15 12 10 7 3 1 1 2 3 3 4 5 5 4 5 5 7 9 10 13 16 17 18 20 20 19 18 18 19
37 37 37 36 36 37 36 36 36 36 36 36 37 36 37 38 37 39 40 40 40 42 42 43 43 42 43 45 47 49 52 53 54 54 54 54 53 52 51 51 50 48 46 44 43 41 40 38 35 34 36 35 33 32 28 24 24 23 20 18 16 14 10 7 6 5 3 3 4 4 5 4 5 7 7 8 11 13 15 17 18 18 18 19 20 19 18 18
39 39 38 37 37 38 38 37 36 36 36 36 36 36 36 36 36 37 37 37 36 36 38 39 40 41 41 42 44 45 47 50 52 53 55 55 55 55 54 53 53 52 50 47 45 43 41 38 37 39 40 37 35 34 31 28 28 26 23 22 20 18 15 11 10 9 7 6 6 6 5 5 6 8 9 11 14 16 17 16 16 16 16 17 19 19 19 18
41 41 40 39 38 39 40 39 38 37 37 37 37 37 37 36 35 35 35 35 34 31 32 33 33 36 36 39 42 43 44 46 47 50 53 54 55 56 56 56 55 55 53 51 49 46 43 41 42 44 45 41 36 35 33 31 31 29 26 25 23 22 19 16 14 13 11 9 8 8 7 7 9 10 10 12 16 17 17 15 14 15 15 17 18 19 18 17
41 42 42 42 41 41 42 42 41 40 40 40 40 40 39 38 37 35 33 34 34 29 30 32 30 31 30 32 37 40 41 43 44 46 49 52 53 55 57 58 57 56 55 54 53 50 47 47 48 49 49 45 38 35 35 33 32 32 30 28 27 25 24 21 17 15 15 13 11 10 9 9 12 13 12 13 15 15 15 15 15 15 16 17 18 18 17 16
41 43 43 43 43 43 44 45 44 45 45 44 45 44 43 42 41 39 36 35 36 32 29 33 35 33 30 27 29 34 37 39 42 44 46 48 50 52 55 58 58 58 58 57 56 53 51 52 51 51 51 49 42 37 35 34 33 34 34 33 31 28 27 26 20 18 19 17 16 14 12 12 13 16 15 14 15 14 15 16 16 17 18 18 18 19 17 16
41 43 44 44 44 44 45 47 48 48 48 48 49 49 47 47 45 44 41 37 39 38 33 34 39 39 35 30 29 30 30 34 38 41 44 45 46 49 53 55 57 60 60 59 57 55 55 55 53 53 53 52 48 41 38 36 35 35 36 36 35 31 30 29 25 22 22 21 20 18 16 16 16 17 17 16 17 16 16 16 17 19 20 19 18 18 17 16
42 44 46 46 46 46 46 48 49 49 50 51 52 51 50 51 50 48 46 41 40 42 39 37 40 43 41 36 34 32 29 30 34 36 40 43 43 45 49 52 55 59 61 61 59 57 58 58 56 55 55 55 53 47 42 40 37 36 38 40 39 36 33 32 29 26 25 24 23 20 19 19 18 19 19 19 19 18 18 18 20 22 22 20 18 17 16 16
45 46 48 49 48 49 48 48 50 50 50 52 53 53 52 53 53 52 51 46 43 44 44 43 43 44 45 43 41 38 33 34 34 31 33 38 41 44 45 48 52 55 59 60 60 59 61 61 59 58 57 56 56 51 46 45 41 37 40 43 42 40 37 35 32 30 29 28 25 22 22 21 20 21 21 22 22 20 19 20 22 24 24 21 19 17 17 16
48 49 50 52 51 52 52 50 50 51 52 54 55 54 54 54 54 54 54 51 48 48 48 49 49 47 47 47 46 43 39 39 37 31 30 33 37 41 42 45 48 51 55 57 60 62 63 63 61 60 60 58 56 55 52 50 46 43 44 46 45 44 41 38 35 33 33 31 28 26 24 22 21 21 21 22 22 21 21 22 24 25 24 23 21 19 18 17
53 52 53 56 54 54 56 54 53 54 55 56 56 56 56 56 55 56 55 52 52 54 51 51 53 52 51 49 49 48 44 44 41 35 35 34 32 35 39 43 45 47 50 54 58 62 64 64 63 62 61 60 59 59 59 54 50 49 49 47 48 48 45 41 38 35 36 34 30 28 26 23 22 22 22 22 22 23 25 25 25 25 25 25 24 22 21 20
56 56 56 59 59 58 60 59 57 57 58 59 59 59 58 58 57 56 54 52 55 58 54 52 55 57 56 52 52 52 49 48 44 38 40 39 33 32 35 39 42 44 46 49 54 60 63 65 65 63 62 63 63 63 62 59 56 55 53 50 49 50 48 44 41 39 37 33 31 31 29 25 25 24 23 23 25 27 28 26 25 25 25 26 26 26 25 24
59 60 60 61 62 62 62 62 62 62 61 61 62 62 61 60 59 55 53 54 58 59 57 56 57 59 59 57 57 55 53 53 49 41 43 44 38 34 34 35 37 40 43 46 50 56 61 63 63 64 65 66 66 65 63 63 62 58 54 53 52 52 51 47 43 41 36 32 33 35 33 29 26 26 26 27 28 29 28 28 28 28 28 28 28 28 27 27
62 63 64 64 65 66 66 64 65 66 64 64 65 65 64 63 59 55 55 59 61 60 60 60 59 59 61 61 60 58 57 57 54 47 46 47 43 38 37 35 34 36 38 42 46 50 55 59 61 64 66 67 67 66 65 66 65 60 58 59 56 54 53 49 46 41 36 35 36 37 37 32 28 29 31 30 31 30 29 31 31 31 30 30 29 29 28 28
65 66 67 67 67 69 70 67 68 69 68 68 68 67 68 65 58 57 61 63 62 63 64 62 60 61 62 63 63 61 59 59 57 53 50 50 47 43 41 39 36 35 37 39 43 45 48 54 59 60 64 68 68 68 68 68 65 62 63 64 59 56 54 51 49 44 40 41 42 41 40 35 32 35 35 32 32 32 32 33 33 32 31 31 31 30 29 29
69 69 70 70 70 71 73 71 71 72 71 72 71 70 70 64 60 63 65 66 66 67 67 65 63 63 63 64 65 65 62 60 60 57 54 53 52 47 45 44 40 39 40 39 38 41 43 47 54 58 61 66 69 69 70 71 69 66 68 67 61 58 57 53 50 49 48 49 49 45 40 37 38 40 39 37 36 35 34 34 34 34 32 33 33 31 31 31
74 74 74 74 74 74 76 76 76 76 76 75 75 73 70 65 65 69 69 69 71 71 71 70 67 66 65 64 65 67 66 63 62 61 58 56 54 52 49 48 46 44 44 41 38 39 40 41 47 55 59 61 66 70 72 74 72 69 72 71 63 58 58 56 54 55 56 54 51 46 42 42 44 44 44 42 40 38 36 35 35 34 32 34 34 33 32 33
77 78 78 79 79 78 78 80 81 81 80 80 79 75 71 69 71 73 72 73 75 74 75 75 71 69 68 67 65 66 68 68 67 66 63 59 57 56 53 51 51 50 48 46 42 40 39 39 42 48 54 57 61 68 73 74 73 72 74 72 64 61 63 62 60 61 60 55 51 47 45 45 46 45 47 46 42 41 39 38 37 34 33 35 35 33 33 33
81 82 83 83 82 82 82 84 85 85 84 84 81 76 73 75 76 76 76 77 78 78 79 78 76 72 72 72 69 67 69 71 72 71 68 64 60 58 57 55 54 54 52 51 50 45 42 41 41 42 46 51 57 64 70 73 74 75 73 70 67 68 68 67 66 66 63 57 53 51 48 48 49 48 49 48 46 45 43 41 38 36 36 36 35 34 32 34
86 87 88 87 85 86 87 89 90 89 89 88 83 79 78 78 78 79 80 80 81 82 82 81 79 77 76 76 73 72 73 73 73 74 73 69 64 61 61 59 57 56 56 57 56 52 47 45 43 41 41 45 50 58 65 68 71 73 73 72 72 72 70 70 71 68 63 60 58 55 51 51 51 49 48 49 49 47 46 45 41 40 39 37 38 36 34 35
91 92 94 92 90 90 92 93 95 94 94 92 88 85 85 83 82 83 83 84 85 85 85 83 82 82 81 79 77 76 77 76 75 76 76 73 69 64 62 63 61 59 59 59 60 57 54 51 49 46 43 42 43 48 54 61 66 71 75 76 76 74 71 73 74 71 66 65 63 59 55 52 50 49 50 52 51 47 49 49 45 43 42 40 41 40 37 37
94 96 98 98 96 95 96 98 99 99 98 96 93 92 91 89 89 88 87 87 88 88 87 86 86 86 84 82 81 80 82 81 78 78 78 76 73 69 66 65 64 63 63 61 60 62 60 55 53 52 48 42 38 38 44 55 65 71 76 78 78 75 74 76 77 74 71 70 66 61 58 54 51 52 54 55 53 49 51 52 47 45 45 43 45 45 41 40
98 99 102 102 101 100 100 102 104 104 103 100 98 97 96 95 94 93 92 92 92 92 91 90 89 88 87 86 85 84 85 86 83 82 81 79 76 73 70 68 66 66 67 64 61 62 64 59 56 57 51 44 38 35 40 52 61 68 73 77 78 77 76 78 80 77 74 73 69 65 62 58 56 56 55 57 56 53 54 54 49 48 48 46 49 50 44 41
103 104 106 107 106 105 105 106 106 107 107 105 104 103 102 101 99 98 97 97 97 96 96 95 93 91 91 91 90 89 89 89 88 86 84 81 78 76 75 72 69 69 70 68 64 62 66 65 58 56 53 46 44 41 40 46 54 61 69 72 76 79 79 79 80 78 76 75 72 69 67 62 60 59 57 59 59 56 56 56 52 50 49 48 51 52 47 43
109 109 111 113 113 112 111 110 110 112 112 110 109 109 108 106 105 103 102 102 101 101 101 100 97 96 95 94 94 94 93 92 91 89 86 84 82 81 78 75 74 74 73 72 68 65 67 68 62 56 55 52 49 46 43 43 47 54 62 67 71 76 78 78 79 79 80 80 76 74 71 67 64 63 61 60 60 60 60 58 54 52 51 51 53 52 49 46
115 114 116 118 120 119 117 115 115 116 117 116 115 114 112 111 110 108 107 106 106 105 105 104 102 101 100 99 99 99 98 97 94 91 89 88 88 86 80 78 78 78 77 76 73 70 68 69 68 61 56 55 53 48 44 44 45 47 52 59 65 71 75 79 81 83 84 82 78 77 75 70 67 66 65 63 63 64 63 60 57 54 52 54 55 53 52 49
120 120 120 123 125 125 123 121 121 122 123 122 120 119 117 116 114 113 112 111 110 110 110 109 107 106 105 104 104 102 102 101 97 95 92 91 94 91 84 82 82 81 81 80 77 74 70 70 73 67 57 55 56 51 46 48 49 46 47 54 62 69 73 78 83 87 87 83 80 80 78 73 71 71 70 68 66 65 65 63 61 57 55 56 57 56 55 51
125 124 125 127 129 130 128 128 128 128 129 127 126 124 122 121 120 119 118 117 116 116 116 115 113 112 111 110 109 107 106 105 102 100 97 95 97 95 89 86 86 87 85 81 79 78 75 73 73 70 63 59 59 57 53 52 52 49 47 51 58 65 71 75 82 88 89 85 83 83 81 77 76 76 74 70 68 67 66 65 64 62 59 59 60 59 57 53
130 129 130 132 133 133 134 134 134 134 134 133 131 129 127 127 126 126 126 124 123 123 123 121 119 118 117 115 114 112 110 110 108 105 102 99 98 97 95 92 91 93 89 83 82 83 80 76 73 70 68 65 61 62 62 57 53 51 50 50 54 60 68 74 80 85 87 88 86 84 82 81 80 80 78 74 72 72 69 66 67 68 65 62 62 62 59 55
135 135 135 135 136 136 137 138 139 139 139 138 137 134 132 132 132 132 132 132 132 131 130 128 126 125 125 123 121 119 117 115 113 109 106 103 101 101 100 98 96 96 93 87 87 87 82 78 76 72 71 68 64 64 66 62 57 55 55 53 52 57 65 72 77 79 82 87 88 85 83 84 84 83 81 78 77 75 72 70 70 70 69 67 65 64 61 59
139 139 139 138 138 138 139 140 141 142 142 142 141 138 136 136 137 137 138 139 139 139 137 135 134 133 132 130 127 125 123 121 119 115 112 109 107 105 105 104 101 99 98 95 91 89 85 80 78 74 71 71 69 67 65 65 63 61 58 55 54 55 60 68 74 76 79 83 87 88 87 86 86 86 84 82 81 79 76 74 73 73 73 71 69 66 63 62
142 142 141 139 139 139 140 141 142 143 144 143 143 141 139 138 139 141 142 143 144 143 143 141 140 139 137 135 132 130 128 126 123 120 117 116 114 111 110 108 105 103 103 100 95 93 89 83 79 78 76 73 71 69 67 65 65 65 61 58 56 55 57 62 68 73 76 79 84 88 89 86 85 87 88 87 85 83 80 79 78 77 76 75 72 69 66 66
142 141 139 138 138 137 137 138 138 138 138 138 137 137 135 134 135 137 139 141 142 143 144 144 143 141 140 139 139 137 134 130 125 121 119 117 116 114 112 110 108 107 106 102 98 96 92 86 81 82 81 74 69 70 69 67 69 70 65 58 55 55 56 59 63 68 73 77 80 85 88 86 85 88 91 91 89 87 85 84 83 81 80 78 75 72 69 69
136 133 131 129 126 125 124 123 121 120 120 120 120 120 119 119 120 122 124 127 130 132 136 138 138 138 139 140 141 140 138 135 130 126 123 120 118 116 114 112 109 108 107 105 103 100 96 90 86 86 84 76 70 69 70 75 78 69 56 52 54 56 58 60 62 63 68 74 80 84 86 85 85 90 93 94 93 91 90 87 85 84 84 81 77 74 72 72
Wind_Direction
268 269 270 271 272 274 275 276 278 279 280 282 283 284 284 286 287 288 290 292 295 297 300 303 308 313 317 320 324 328 332 337 340 346 354 360 3 7 13 21 31 38 42 42 46 51 57 62 57 53 69 192 204 207 213 218 220 221 229 240 240 244 252 254 253 250 247 247 246 245 242 242 243 246 248 249 250 252 251 252 253 254 254 253 254 256 255 258
269 270 271 272 273 274 275 276 277 278 279 281 281 282 283 284 284 285 285 286 288 290 293 295 298 303 307 311 313 316 320 324 327 331 339 346 351 355 360 6 14 25 34 37 36 37 44 53 57 54 52 56 216 220 222 228 228 225 229 240 240 240 249 253 252 250 247 245 243 242 242 241 242 243 246 247 248 250 251 252 255 256 255 254 255 253 252 254
270 271 272 272 273 274 275 275 276 277 278 279 280 280 281 282 282 282 283 283 283 284 286 287 290 293 296 301 304 306 307 312 317 320 326 330 337 343 347 351 357 5 17 26 29 28 27 30 40 45 43 39 22 276 236 234 234 231 230 236 240 240 248 253 251 250 248 246 243 239 239 239 239 240 241 244 246 249 253 256 259 258 255 253 252 250 249 251
270 271 272 272 273 273 273 274 275 275 276 277 278 278 279 280 280 280 281 281 281 280 281 282 283 284 286 289 292 296 297 301 306 310 315 317 322 330 335 339 341 347 355 5 14 18 18 13 16 26 31 27 18 354 288 251 242 237 232 230 236 241 246 249 249 251 251 249 243 238 237 236 235 236 238 242 245 249 254 258 259 257 255 251 247 247 247 249
270 271 271 271 272 272 272 273 273 274 274 275 275 276 277 277 279 279 278 278 278 278 277 278 278 279 278 279 281 284 288 292 295 300 305 307 311 316 320 326 327 330 334 342 352 359 4 5 1 4 12 15 12 2 345 313 258 241 235 231 234 241 245 245 246 250 253 251 241 235 233 230 230 233 237 240 245 251 254 256 255 247 244 244 240 241 238 238
270 271 271 271 271 272 272 272 272 273 273 273 273 274 274 275 275 276 277 276 276 275 275 275 274 275 274 273 272 274 279 283 287 291 295 298 302 305 307 311 314 316 319 323 329 337 345 349 351 350 354 358 4 5 358 349 321 248 237 231 231 238 243 246 247 249 253 249 238 231 227 226 229 232 236 241 245 249 249 246 239 225 222 228 230 228 223 225
269 269 270 270 271 271 271 272 272 272 272 272 272 272 272 272 272 272 273 274 274 273 272 272 272 272 271 270 269 267 270 275 280 284 285 288 292 296 298 301 302 305 307 310 314 317 323 332 337 340 343 345 351 1 2 357 356 333 235 231 230 231 238 246 247 248 249 243 233 227 223 221 224 229 235 241 241 239 238 229 214 210 216 227 232 230 226 229
268 269 269 269 270 270 271 271 271 271 271 271 271 271 271 271 270 270 270 270 271 271 270 270 269 268 268 268 267 265 266 269 274 276 275 277 282 286 289 291 293 296 297 299 302 304 307 314 323 328 334 336 340 350 1 1 2 12 29 241 233 230 239 249 249 244 239 231 225 219 215 213 217 226 232 236 236 229 224 215 205 209 220 229 235 236 237 241
269 269 270 270 271 271 271 271 271 271 271 270 270 270 270 269 269 269 269 268 268 269 268 268 267 266 265 265 264 263 264 265 268 270 270 270 272 278 281 283 285 288 289 290 291 294 297 301 309 317 323 328 330 338 352 3 5 8 28 32 257 237 241 248 245 235 224 217 212 210 211 211 215 223 225 230 232 226 218 212 211 217 224 231 235 238 246 251
269 270 270 270 271 271 271 271 271 271 271 271 270 270 269 268 268 267 267 267 266 266 266 266 266 265 264 263 261 261 260 262 265 267 268 268 266 269 274 277 279 281 283 283 285 286 288 293 299 305 312 319 322 328 340 355 5 8 16 32 26 294 244 238 230 219 213 209 206 209 215 215 215 221 224 228 232 228 220 215 219 225 230 236 239 244 250 251
268 269 269 270 270 271 272 272 272 272 272 271 271 270 269 268 267 267 266 266 265 264 264 264 264 264 263 262 260 258 257 257 260 263 266 268 266 263 266 271 274 276 278 280 282 283 284 286 290 294 301 307 313 318 327 342 358 7 10 21 31 29 281 232 218 208 207 208 208 213 220 218 214 218 226 233 236 232 225 223 226 232 238 242 245 246 242 240
271 271 271 272 272 272 273 273 273 273 273 272 272 271 270 269 267 267 266 265 265 264 263 263 262 262 261 261 260 258 256 255 255 257 261 266 267 264 262 265 269 271 274 277 278 280 282 283 284 286 290 295 301 307 313 325 343 360 7 11 21 32 25 261 216 204 204 210 214 217 221 221 215 215 228 239 242 238 230 228 231 237 244 247 244 237 228 223
275 276 275 275 275 275 276 276 276 275 274 274 273 272 271 270 269 267 266 265 264 264 263 262 262 261 260 260 259 258 256 254 254 254 255 260 264 264 262 261 264 267 269 272 274 276 278 280 281 281 282 285 290 297 304 309 320 345 360 5 11 24 33 12 262 216 210 215 219 218 220 222 217 213 221 236 241 238 233 229 232 238 245 245 235 221 213 205
277 277 277 278 278 278 278 278 277 277 277 276 276 275 274 273 272 270 268 267 265 264 263 262 261 261 260 260 259 257 255 254 253 253 252 254 259 262 261 259 261 263 265 266 269 272 274 276 278 279 277 276 281 287 293 299 303 321 344 357 6 14 31 33 8 245 219 218 219 217 217 218 216 211 212 226 233 231 229 228 231 237 240 233 209 187 196 183
276 277 277 278 278 279 279 278 278 278 278 278 278 277 277 276 275 273 272 270 268 267 265 263 261 260 260 260 259 258 256 254 252 252 251 251 253 257 259 258 258 260 262 263 264 267 270 271 273 277 277 272 273 277 281 288 294 300 312 333 358 7 29 43 48 62 176 200 203 204 208 210 208 209 208 217 226 226 226 228 233 233 220 201 169 157 172 162
275 276 277 278 278 279 279 279 280 280 280 280 279 279 279 278 277 276 275 273 271 269 267 266 264 261 259 259 259 258 257 254 252 251 250 250 250 252 255 256 255 257 259 261 263 264 265 268 269 271 274 273 270 270 271 277 286 289 290 298 322 348 25 47 58 70 92 147 174 184 195 200 201 218 223 223 229 230 232 232 228 213 188 168 153 152 159 151
275 276 277 278 279 279 280 281 281 281 282 282 282 282 281 281 280 279 277 276 274 272 269 267 265 263 261 259 258 257 256 255 253 251 250 249 249 249 251 253 253 253 255 258 261 261 261 263 264 265 268 272 270 266 265 270 277 279 280 280 282 291 351 48 59 73 90 118 138 160 172 177 190 223 234 231 234 232 228 220 205 187 166 154 149 148 148 146
273 274 275 276 278 279 280 281 281 282 283 284 284 284 284 283 283 282 281 279 278 276 273 270 267 265 263 260 258 257 255 254 253 252 250 249 248 248 249 250 251 251 252 255 257 258 259 259 260 262 262 265 266 264 261 264 270 270 271 271 268 263 255 25 45 71 90 114 115 124 140 147 169 206 227 219 216 215 204 193 183 169 153 144 144 144 144 145
272 273 273 274 276 277 278 279 280 281 282 283 284 284 283 283 284 283 283 282 281 279 277 275 271 268 266 263 260 258 256 253 252 251 250 249 248 247 247 248 249 249 249 251 253 256 258 258 258 259 257 257 261 264 262 261 265 265 265 266 264 259 244 229 258 143 103 114 123 123 137 161 182 183 203 198 189 188 180 171 167 158 147 143 143 146 148 150
272 273 274 274 275 276 277 277 278 279 280 280 280 280 280 280 281 281 281 282 282 282 280 279 276 272 270 268 264 260 258 254 252 250 249 249 248 247 246 246 247 248 247 247 249 252 255 258 258 257 255 255 257 261 261 260 261 261 262 262 261 259 247 227 224 214 171 147 147 154 165 182 188 175 177 176 167 163 163 162 158 153 149 148 149 151 154 154
274 274 275 276 277 278 279 280 280 281 281 280 280 280 280 279 280 280 280 279 279 280 280 280 280 277 274 272 268 264 261 258 254 251 249 247 247 246 246 245 245 246 246 245 246 249 253 257 256 254 254 252 252 255 256 258 259 258 259 259 259 259 253 236 228 222 205 185 165 167 186 194 183 168 157 155 155 154 157 161 161 158 157 156 155 155 156 156
275 276 276 276 278 279 281 282 283 283 284 284 284 284 284 284 284 283 283 281 277 276 279 279 280 281 278 276 274 270 266 262 258 254 250 247 245 245 245 244 243 244 244 244 245 246 249 251 249 251 252 249 248 250 251 253 256 258 257 257 258 257 255 244 234 230 222 213 193 178 184 196 188 173 155 154 159 158 160 167 169 167 164 160 159 158 158 157
276 276 276 276 277 278 279 280 281 283 284 285 286 286 287 287 288 288 288 288 283 278 281 283 280 280 280 280 279 276 272 268 264 260 254 249 246 244 244 243 242 242 243 243 243 243 244 247 247 250 253 251 247 247 248 249 252 256 257 256 255 254 254 248 239 234 228 223 217 198 189 198 197 188 178 172 174 174 174 177 177 174 168 164 161 161 162 162
275 276 276 276 276 277 278 279 280 281 282 284 285 285 286 287 288 290 291 293 292 286 288 292 290 285 279 278 281 280 278 275 270 265 260 254 248 244 243 242 242 242 241 241 242 242 243 245 247 250 254 255 251 247 248 248 247 251 255 256 254 251 251 249 242 238 234 227 222 214 203 203 201 197 195 190 189 190 186 184 181 178 173 167 164 164 166 168
274 275 276 276 276 276 276 278 279 280 281 282 282 282 284 285 286 288 289 292 294 292 294 295 294 291 285 281 280 279 280 280 275 271 266 259 253 248 244 242 241 241 240 239 239 240 242 244 245 248 251 254 252 247 246 246 243 246 250 253 254 251 249 247 243 240 239 233 226 220 215 213 206 201 200 195 195 197 195 191 186 181 178 174 172 171 172 173
274 275 276 276 276 275 275 277 277 278 280 280 280 280 281 282 283 284 285 286 287 289 292 291 289 291 292 290 286 281 278 278 277 275 272 267 260 254 248 243 240 240 239 238 238 238 240 242 242 245 247 250 252 248 244 244 242 240 244 249 252 251 249 246 243 240 240 237 233 225 220 220 214 208 205 201 201 205 203 197 191 186 185 186 184 182 183 183
275 276 277 277 277 277 276 276 278 279 279 279 279 280 279 279 280 280 282 283 282 283 284 283 282 287 290 292 290 286 283 281 277 273 275 273 268 262 255 248 242 239 238 238 237 237 238 239 240 242 244 247 251 250 245 243 241 236 237 243 248 249 248 245 241 239 239 238 236 231 223 219 218 215 212 208 207 209 207 202 198 195 195 197 197 197 197 197
275 276 277 277 277 278 278 277 278 280 280 279 279 280 279 279 279 279 280 281 281 279 277 279 281 282 284 286 287 287 287 285 280 273 272 272 271 269 263 257 249 242 238 236 236 236 237 238 238 239 242 244 248 249 246 242 239 236 235 237 242 245 245 244 241 239 239 238 236 234 229 221 219 219 217 214 211 212 211 209 206 203 203 206 208 210 211 211
276 277 277 277 278 278 278 278 278 279 279 279 279 280 279 279 279 278 280 282 281 277 275 277 280 279 278 280 282 283 284 284 282 278 275 269 266 270 268 263 258 249 242 236 235 236 236 236 236 237 240 242 244 246 246 244 239 238 238 236 239 242 243 242 240 239 237 236 235 236 235 228 223 222 220 217 214 212 212 212 211 210 212 215 215 218 222 224
277 277 277 278 278 278 278 278 279 278 278 278 279 279 279 279 279 279 282 283 279 276 277 276 275 275 277 278 277 278 280 281 280 281 281 273 264 264 266 265 264 258 249 241 235 235 235 236 235 235 237 239 241 243 246 246 242 239 240 239 239 241 243 241 240 238 235 234 237 238 236 232 228 225 222 219 216 215 214 212 214 219 221 220 220 222 227 231
275 276 276 276 277 277 277 278 279 278 277 277 277 277 278 277 278 281 284 281 276 276 278 275 273 274 275 275 274 276 277 278 278 280 281 278 271 265 264 264 264 262 257 249 241 236 235 235 235 234 235 237 239 241 243 245 244 240 240 241 241 241 243 243 241 239 235 234 238 240 237 233 232 230 224 220 219 218 217 215 216 222 224 221 222 224 228 232
274 274 274 274 275 275 275 276 277 276 277 277 276 277 277 276 280 284 281 277 274 275 275 273 273 273 273 272 273 274 274 275 278 279 278 278 276 271 267 262 260 261 260 255 249 241 236 234 234 235 234 235 237 239 240 243 245 243 241 239 239 241 243 245 245 241 238 239 240 240 238 233 232 234 230 224 222 220 220 219 219 222 224 223 224 227 229 232
275 275 275 275 275 275 275 276 276 276 276 276 277 277 276 278 283 282 276 274 274 273 271 271 271 270 270 271 272 272 272 274 276 276 275 276 276 275 272 266 260 259 258 256 255 250 242 235 233 234 235 234 235 237 239 241 242 242 241 239 237 240 242 243 245 244 241 242 241 238 236 233 233 236 235 230 227 224 221 222 223 223 224 226 227 229 231 232
276 276 276 276 276 276 276 277 276 277 276 276 276 276 277 282 284 277 273 273 272 270 270 270 269 268 269 270 271 272 271 271 272 273 272 273 275 275 274 271 266 263 260 256 254 255 251 242 235 233 235 235 233 235 237 238 238 238 240 238 234 235 239 238 240 242 240 239 239 238 234 232 233 235 235 232 231 228 223 223 226 225 225 227 230 231 233 235
275 276 276 276 275 275 276 277 277 277 277 276 276 276 278 282 278 273 272 271 270 270 270 270 269 269 269 267 268 270 271 270 269 270 269 270 272 273 273 274 272 269 266 260 254 252 253 250 242 234 233 235 235 234 235 237 238 238 241 241 235 234 239 238 236 237 238 236 236 236 232 231 233 233 234 233 233 232 228 225 227 227 228 229 230 233 235 238
275 275 275 275 275 275 276 276 276 276 276 276 276 278 279 278 274 272 272 270 269 269 269 269 270 270 269 267 265 267 269 269 268 267 267 267 269 271 272 273 272 271 269 266 260 254 252 252 250 242 235 235 236 235 234 236 238 237 240 242 239 236 238 239 236 237 238 237 235 233 231 232 233 233 235 236 235 236 233 229 228 228 230 232 230 232 237 241
274 274 273 273 274 275 275 275 275 275 275 275 276 278 277 275 274 273 272 270 269 267 266 268 269 269 269 268 266 265 265 266 267 267 266 265 266 268 269 269 270 270 271 270 266 260 255 252 251 250 244 238 238 237 234 235 238 238 238 241 240 237 236 237 238 239 239 239 237 234 230 231 232 232 235 237 237 237 237 234 231 230 232 234 233 232 236 242
274 274 273 273 273 273 274 274 275 275 275 275 276 277 275 273 272 270 269 268 268 267 266 266 268 268 267 267 267 265 263 263 265 266 266 265 264 264 265 267 267 268 268 270 269 264 259 256 251 248 248 246 243 240 237 235 238 240 239 238 238 238 237 236 238 240 241 241 240 238 233 231 232 232 235 238 237 236 239 239 236 234 235 236 237 234 233 239
274 274 274 273 273 273 273 274 274 275 275 275 276 276 274 273 271 269 268 268 267 267 267 266 266 265 265 266 266 265 264 262 262 264 265 266 264 262 262 264 265 265 265 266 269 267 262 260 257 248 243 247 250 248 244 239 238 239 239 237 237 238 238 237 237 237 238 239 238 238 237 234 234 235 236 238 237 235 239 240 238 239 238 238 240 238 233 237
273 274 274 273 273 272 273 273 274 274 274 275 275 275 274 274 272 271 269 268 267 266 266 266 264 264 264 265 264 264 264 263 261 262 263 264 265 263 262 261 262 263 263 262 265 267 264 261 261 256 243 240 249 255 253 246 238 237 238 237 236 237 237 238 237 234 234 237 238 237 238 236 235 235 236 238 238 236 238 239 237 239 241 240 242 241 236 236
273 273 273 273 273 273 272 272 272 273 273 274 274 274 274 273 272 271 270 268 267 266 266 264 264 263 263 263 263 262 261 262 261 261 262 262 263 263 262 261 259 259 260 261 261 265 266 262 261 261 251 238 239 247 252 251 244 238 238 239 238 236 236 237 238 235 233 235 237 237 237 236 235 236 237 239 239 237 238 239 236 237 239 240 243 244 240 238
272 272 273 273 272 272 271 271 271 272 272 272 273 272 272 272 271 271 270 269 268 267 266 265 264 263 262 262 262 261 260 260 261 260 261 261 261 261 261 260 259 257 258 260 259 260 264 263 260 261 258 245 236 237 245 255 254 245 239 239 240 238 236 238 240 239 236 234 235 236 236 235 236 236 236 239 241 240 239 239 237 236 237 239 242 244 242 240
272 272 272 272 272 271 271 271 271 271 271 271 271 271 271 271 271 270 269 269 268 268 267 266 265 263 262 261 260 260 259 259 260 260 260 261 259 258 258 258 258 258 257 258 258 257 259 263 262 260 261 255 243 237 241 253 259 254 245 241 242 241 239 238 240 240 238 235 234 235 235 234 234 236 236 238 241 242 242 240 239 237 238 239 240 242 242 240
271 271 271 271 271 271 270 270 270 269 269 269 269 269 269 270 270 269 269 268 267 266 266 265 265 263 262 261 259 259 259 259 259 259 259 259 259 258 257 256 256 257 257 257 257 256 256 261 263 260 259 260 253 241 239 250 258 260 254 246 243 242 240 238 238 239 239 236 234 234 235 234 235 236 235 235 237 240 242 242 241 238 238 240 241 241 242 240
271 270 270 270 270 270 270 270 269 268 268 267 267 268 268 268 268 267 267 266 265 264 264 263 263 262 261 260 260 259 259 259 259 258 256 256 258 258 256 255 255 255 255 256 257 257 256 258 262 262 260 262 262 250 242 248 253 254 255 251 244 241 240 239 238 238 238 238 235 234 233 233 234 236 236 235 235 237 240 242 242 239 237 240 242 242 242 241
271 270 270 269 269 269 269 269 269 268 267 267 267 266 266 266 266 266 265 264 264 263 262 261 261 261 260 260 260 259 258 258 257 256 255 254 256 257 256 255 255 254 254 256 257 258 258 257 259 263 262 261 262 259 250 247 248 250 254 256 250 243 241 240 239 238 238 237 236 234 232 232 233 235 236 237 237 237 238 240 242 241 238 238 241 243 243 242
272 271 270 270 270 270 270 269 269 268 268 267 267 266 266 265 265 265 265 264 263 262 261 261 261 260 259 259 258 257 256 255 255 254 253 253 254 255 255 254 254 255 256 256 256 257 258 258 259 261 262 260 259 261 258 252 249 251 254 257 256 249 244 241 240 239 238 238 237 236 234 233 233 235 235 235 236 237 237 237 239 241 241 239 239 241 242 242
274 273 272 271 271 271 271 270 270 269 269 268 267 266 265 265 265 264 264 264 263 262 261 260 259 258 257 256 256 255 255 254 254 253 252 252 252 253 254 253 253 256 257 255 255 257 258 259 260 259 260 261 259 259 261 259 256 255 253 254 256 254 248 243 240 239 240 240 238 236 236 234 233 234 235 235 235 236 236 236 237 239 241 241 240 240 241 241
275 275 274 273 272 272 271 271 270 270 269 268 268 266 265 264 264 263 263 262 262 261 260 259 258 257 257 257 256 256 256 256 255 255 254 252 252 252 252 253 253 256 258 256 255 257 258 259 261 261 260 261 260 259 261 261 261 260 256 253 254 255 252 247 241 238 239 240 238 236 236 235 234 234 235 235 236 236 235 235 235 237 239 240 241 241 241 241
276 276 275 274 274 273 272 272 271 270 270 269 268 267 266 264 263 262 261 261 260 260 259 258 257 256 255 255 255 254 254 254 255 255 255 255 255 255 255 256 257 257 259 258 257 257 259 260 261 262 261 260 261 261 261 261 262 262 259 255 255 256 255 252 246 241 239 240 240 238 236 235 234 235 235 235 235 236 236 235 235 236 237 239 240 241 240 241
277 277 277 276 275 274 273 272 271 270 270 269 268 267 265 264 262 261 260 259 258 257 257 256 255 254 253 252 251 251 251 252 252 252 253 254 255 256 257 258 258 259 259 259 258 258 260 262 261 262 262 262 262 262 263 263 263 262 259 258 259 260 259 255 250 245 242 240 240 240 238 235 234 235 234 234 235 235 236 236 236 237 237 238 239 240 240 242
278 278 277 276 275 274 273 272 271 270 269 268 266 265 263 262 260 258 257 256 255 255 254 253 253 252 251 250 250 250 249 250 250 249 249 250 250 252 253 254 254 256 258 258 258 258 260 262 262 262 263 263 263 263 264 264 262 261 261 264 263 261 259 254 248 245 243 241 239 240 238 235 235 236 235 233 234 235 235 236 237 238 239 239 239 239 240 242
Height
10991 10991 10991 10991 10991 10991 10992 10992 10992 10992 10993 10993 10993 10993 10993 10993 10993 10993 10993 10993 10992 10992 10992 10992 10992 10992 10991 10990 10990 10990 10990 10990 10990 10989 10989 10989 10988 10987 10987 10986 10986 10985 10984 10983 10982 10980 10979 10979 10978 10978 10978 10978 10978 10979 10978 10977 10978 10978 10978 10978 10978 10978 10978 10978 10979 10980 10981 10981 10982 10983 10985 10986 10988 10989 10991 10992 10992 10992 10993 10994 10994 10994 10994 10995 10994 10993 10993 10992
10989 10989 10989 10989 10989 10989 10990 10990 10990 10991 10991 10991 10991 10991 10991 10991 10991 10992 10992 10992 10992 10991 10991 10991 10991 10991 10991 10990 10989 10989 10990 10990 10989 10989 10989 10989 10989 10988 10987 10987 10987 10986 10986 10985 10983 10982 10981 10980 10980 10979 10979 10978 10978 10978 10977 10977 10977 10977 10977 10977 10977 10976 10976 10977 10977 10978 10978 10979 10980 10981 10983 10985 10986 10988 10989 10990 10990 10990 10991 10992 10993 10993 10993 10993 10993 10991 10991 10991
10987 10987 10987 10987 10987 10987 10988 10988 10988 10988 10989 10989 10989 10989 10989 10989 10989 10990 10990 10990 10991 10991 10990 10990 10991 10991 10991 10990 10989 10988 10988 10989 10989 10988 10988 10988 10988 10988 10988 10988 10987 10987 10987 10986 10985 10984 10983 10982 10981 10980 10979 10979 10978 10978 10977 10977 10976 10976 10975 10975 10975 10975 10975 10975 10975 10976 10977 10978 10979 10980 10981 10983 10985 10986 10987 10988 10989 10989 10989 10990 10992 10992 10991 10991 10991 10990 10989 10989
10985 10985 10985 10984 10985 10985 10985 10985 10986 10986 10986 10987 10987 10987 10987 10987 10987 10988 10988 10988 10989 10989 10989 10989 10989 10990 10990 10990 10989 10987 10986 10987 10988 10988 10988 10988 10988 10988 10988 10988 10987 10987 10987 10986 10986 10985 10984 10983 10982 10981 10980 10979 10978 10978 10977 10976 10975 10974 10973 10973 10973 10974 10974 10974 10974 10975 10976 10977 10977 10978 10980 10982 10983 10984 10985 10986 10987 10987 10988 10989 10989 10990 10989 10989 10989 10989 10988 10988
10982 10982 10982 10982 10982 10982 10982 10983 10983 10983 10984 10984 10985 10985 10985 10985 10985 10985 10986 10986 10987 10987 10987 10988 10988 10988 10989 10989 10989 10987 10985 10985 10987 10988 10987 10987 10987 10987 10987 10987 10987 10987 10987 10986 10986 10986 10984 10984 10983 10982 10981 10979 10978 10978 10977 10975 10973 10971 10971 10971 10972 10973 10972 10972 10972 10973 10974 10975 10976 10977 10979 10980 10982 10983 10984 10984 10985 10985 10986 10986 10987 10987 10987 10987 10987 10988 10988 10988
10979 10979 10979 10979 10979 10979 10980 10980 10980 10981 10981 10982 10982 10982 10983 10983 10983 10983 10983 10984 10984 10985 10985 10986 10986 10986 10987 10988 10988 10987 10985 10983 10985 10987 10987 10986 10986 10986 10986 10986 10987 10986 10986 10986 10986 10986 10985 10984 10983 10982 10981 10980 10978 10977 10976 10974 10972 10970 10969 10970 10971 10971 10970 10970 10970 10972 10973 10974 10974 10975 10977 10979 10980 10981 10982 10983 10983 10984 10984 10985 10985 10986 10986 10986 10986 10987 10987 10987
10976 10976 10976 10976 10976 10976 10977 10977 10977 10978 10978 10979 10979 10980 10980 10980 10981 10981 10981 10981 10982 10982 10983 10983 10984 10985 10985 10986 10986 10986 10985 10983 10983 10986 10986 10985 10985 10985 10985 10985 10985 10986 10985 10985 10985 10985 10985 10984 10983 10982 10981 10980 10979 10977 10975 10974 10972 10969 10968 10968 10969 10969 10968 10968 10968 10970 10971 10972 10973 10974 10976 10977 10978 10979 10980 10981 10982 10983 10983 10984 10984 10985 10985 10986 10986 10986 10986 10987
10972 10972 10972 10973 10973 10973 10973 10974 10974 10974 10975 10975 10976 10977 10977 10978 10978 10978 10979 10979 10979 10979 10980 10981 10981 10982 10983 10983 10984 10984 10984 10982 10982 10983 10983 10984 10984 10983 10983 10983 10984 10984 10984 10984 10984 10984 10984 10984 10983 10982 10982 10980 10979 10977 10975 10974 10972 10970 10968 10968 10968 10968 10967 10966 10967 10968 10969 10970 10971 10973 10974 10975 10976 10978 10979 10980 10981 10982 10982 10983 10984 10984 10985 10985 10985 10985 10985 10986
10969 10969 10969 10969 10969 10969 10969 10970 10970 10970 10971 10972 10972 10973 10974 10974 10975 10975 10976 10976 10977 10977 10977 10978 10978 10979 10980 10981 10981 10982 10983 10981 10980 10981 10980 10982 10983 10982 10981 10982 10982 10982 10983 10983 10983 10983 10983 10983 10983 10982 10981 10981 10979 10978 10976 10974 10973 10970 10968 10967 10967 10967 10966 10965 10966 10967 10968 10969 10970 10971 10973 10974 10975 10976 10978 10979 10980 10981 10982 10983 10983 10983 10984 10984 10984 10984 10984 10984
10965 10965 10965 10965 10965 10965 10965 10965 10965 10966 10966 10967 10968 10969 10969 10970 10971 10971 10972 10973 10973 10974 10974 10975 10975 10976 10977 10977 10978 10980 10981 10980 10979 10979 10978 10979 10981 10981 10980 10980 10980 10980 10981 10981 10981 10981 10982 10982 10982 10982 10981 10980 10980 10978 10977 10975 10973 10971 10969 10967 10966 10965 10964 10964 10965 10966 10967 10968 10969 10970 10972 10973 10974 10975 10977 10978 10979 10980 10981 10982 10982 10983 10983 10983 10983 10983 10983 10983
10961 10961 10961 10961 10961 10961 10960 10960 10960 10961 10962 10962 10963 10964 10965 10966 10966 10967 10968 10968 10969 10970 10971 10971 10972 10972 10973 10974 10975 10977 10978 10977 10977 10977 10976 10976 10977 10979 10978 10978 10978 10978 10978 10979 10979 10980 10980 10981 10981 10981 10981 10980 10979 10978 10977 10976 10974 10972 10970 10968 10966 10965 10964 10964 10964 10965 10966 10967 10968 10969 10971 10972 10973 10974 10975 10977 10978 10979 10980 10981 10982 10982 10982 10982 10982 10982 10982 10982
10957 10957 10957 10957 10957 10956 10956 10956 10955 10956 10957 10957 10958 10958 10959 10960 10961 10962 10963 10964 10965 10965 10966 10967 10968 10969 10969 10969 10971 10973 10974 10974 10975 10975 10974 10973 10974 10976 10977 10976 10976 10976 10976 10977 10977 10978 10978 10979 10980 10980 10980 10979 10979 10978 10977 10976 10975 10973 10971 10969 10967 10966 10965 10964 10964 10964 10965 10966 10967 10968 10970 10971 10971 10972 10974 10975 10977 10978 10979 10980 10981 10981 10981 10981 10981 10980 10981 10981
10952 10952 10952 10952 10952 10952 10952 10951 10950 10950 10951 10952 10952 10952 10953 10954 10956 10957 10958 10958 10959 10961 10962 10963 10964 10964 10965 10965 10966 10968 10970 10971 10972 10972 10972 10971 10971 10972 10974 10975 10974 10973 10974 10975 10975 10976 10976 10977 10978 10979 10979 10979 10978 10977 10977 10976 10975 10974 10972 10970 10969 10967 10965 10965 10964 10964 10965 10966 10967 10968 10969 10970 10970 10971 10972 10974 10975 10977 10978 10979 10980 10981 10980 10980 10980 10979 10980 10980
10948 10947 10947 10947 10947 10947 10946 10946 10945 10945 10945 10946 10946 10946 10947 10948 10949 10950 10952 10953 10954 10955 10956 10958 10959 10960 10960 10960 10961 10963 10965 10967 10968 10968 10969 10969 10968 10968 10970 10972 10972 10971 10971 10972 10972 10973 10974 10975 10975 10976 10977 10978 10977 10977 10976 10976 10975 10974 10972 10971 10970 10968 10966 10965 10965 10965 10965 10966 10966 10967 10968 10969 10969 10970 10971 10972 10974 10975 10977 10978 10979 10979 10979 10979 10979 10979 10979 10980
10943 10942 10942 10941 10941 10941 10941 10941 10940 10940 10940 10940 10940 10940 10941 10942 10943 10943 10945 10946 10948 10949 10950 10952 10953 10954 10956 10955 10955 10957 10959 10962 10963 10964 10964 10965 10965 10964 10965 10968 10969 10969 10968 10968 10970 10970 10971 10973 10973 10974 10975 10976 10976 10976 10975 10975 10975 10974 10973 10972 10971 10969 10967 10966 10965 10965 10965 10965 10966 10966 10967 10967 10968 10969 10970 10971 10972 10974 10975 10977 10978 10978 10978 10978 10977 10978 10980 10980
10937 10937 10937 10936 10936 10936 10936 10935 10935 10934 10934 10934 10934 10934 10935 10935 10936 10937 10938 10939 10941 10943 10944 10945 10946 10948 10950 10949 10950 10951 10953 10956 10958 10958 10959 10960 10961 10961 10961 10963 10965 10966 10965 10965 10966 10967 10968 10970 10971 10972 10972 10973 10974 10974 10974 10974 10974 10973 10973 10972 10971 10970 10968 10967 10966 10965 10965 10965 10965 10965 10966 10966 10967 10968 10969 10970 10971 10972 10974 10975 10976 10976 10976 10977 10977 10978 10979 10980
10932 10932 10932 10931 10931 10931 10931 10931 10930 10930 10930 10930 10929 10929 10929 10929 10930 10930 10931 10932 10934 10935 10936 10937 10939 10941 10943 10943 10944 10945 10946 10950 10952 10953 10954 10955 10956 10956 10957 10958 10960 10962 10962 10963 10964 10963 10965 10967 10968 10969 10970 10970 10971 10972 10973 10974 10973 10972 10972 10972 10971 10970 10969 10968 10966 10965 10965 10965 10965 10965 10965 10966 10967 10968 10968 10969 10969 10971 10972 10973 10975 10975 10975 10976 10977 10978 10979 10980
10926 10927 10927 10926 10926 10926 10926 10926 10926 10926 10926 10925 10925 10925 10924 10924 10925 10925 10925 10926 10927 10928 10929 10930 10932 10934 10935 10935 10937 10937 10939 10943 10945 10946 10948 10949 10951 10952 10953 10953 10955 10957 10959 10960 10960 10959 10961 10963 10965 10967 10968 10967 10967 10969 10971 10972 10972 10971 10971 10971 10971 10970 10970 10969 10967 10966 10965 10965 10965 10965 10964 10965 10967 10968 10968 10968 10968 10970 10971 10973 10974 10975 10975 10976 10977 10978 10979 10980
10922 10922 10923 10922 10921 10921 10922 10921 10921 10922 10922 10921 10921 10921 10920 10920 10921 10920 10920 10921 10922 10922 10923 10923 10925 10928 10927 10927 10930 10930 10931 10935 10937 10939 10941 10943 10945 10946 10948 10949 10950 10952 10954 10956 10956 10956 10957 10959 10961 10964 10964 10963 10964 10966 10968 10970 10970 10969 10970 10970 10970 10970 10969 10968 10967 10966 10965 10964 10964 10964 10964 10965 10967 10967 10967 10968 10968 10970 10971 10972 10974 10975 10975 10975 10977 10979 10980 10981
10918 10918 10919 10919 10918 10917 10917 10917 10917 10917 10918 10918 10917 10917 10917 10917 10917 10916 10916 10917 10917 10917 10917 10917 10918 10921 10921 10920 10922 10922 10924 10927 10929 10931 10934 10936 10938 10940 10942 10943 10945 10947 10949 10951 10952 10953 10954 10956 10959 10959 10959 10960 10962 10963 10965 10967 10967 10967 10968 10968 10968 10968 10969 10968 10967 10967 10966 10964 10964 10964 10965 10966 10967 10967 10967 10968 10969 10970 10972 10973 10974 10975 10975 10976 10977 10979 10980 10981
10913 10914 10914 10915 10915 10913 10913 10913 10913 10913 10913 10913 10913 10913 10913 10913 10914 10912 10912 10913 10914 10913 10912 10912 10913 10914 10916 10915 10914 10916 10918 10919 10921 10924 10926 10929 10932 10933 10935 10938 10939 10940 10942 10945 10948 10950 10953 10955 10954 10953 10952 10955 10958 10960 10962 10963 10964 10965 10965 10966 10966 10967 10967 10967 10967 10967 10966 10965 10964 10964 10965 10966 10967 10967 10968 10969 10970 10971 10972 10974 10975 10975 10976 10976 10977 10979 10980 10982
10909 10909 10909 10910 10911 10910 10908 10908 10908 10908 10909 10909 10908 10908 10908 10909 10909 10909 10909 10908 10910 10911 10908 10908 10909 10908 10911 10910 10908 10910 10911 10912 10915 10916 10918 10921 10924 10926 10928 10930 10932 10934 10937 10941 10943 10946 10949 10950 10947 10945 10946 10950 10954 10957 10959 10960 10961 10962 10963 10964 10964 10965 10965 10966 10966 10966 10966 10966 10965 10964 10965 10966 10967 10968 10969 10969 10971 10971 10973 10975 10976 10976 10977 10977 10978 10979 10981 10982
10904 10903 10904 10905 10906 10905 10904 10903 10903 10904 10904 10904 10903 10904 10904 10904 10905 10905 10906 10904 10904 10907 10906 10903 10905 10905 10906 10906 10905 10905 10906 10907 10908 10909 10910 10914 10917 10919 10920 10922 10925 10929 10931 10934 10936 10940 10943 10942 10940 10940 10940 10945 10951 10954 10955 10957 10958 10959 10960 10961 10961 10962 10963 10964 10965 10966 10966 10966 10965 10965 10965 10966 10967 10968 10969 10970 10971 10972 10973 10974 10976 10976 10977 10978 10978 10980 10981 10983
10899 10898 10898 10899 10900 10901 10899 10898 10898 10898 10898 10899 10898 10898 10899 10899 10900 10901 10902 10901 10899 10901 10903 10899 10898 10900 10902 10903 10902 10901 10901 10902 10902 10902 10903 10906 10910 10912 10912 10915 10920 10922 10923 10926 10930 10935 10937 10935 10936 10938 10937 10940 10947 10951 10953 10954 10955 10955 10956 10957 10957 10959 10960 10961 10963 10964 10964 10964 10964 10964 10965 10965 10966 10967 10968 10969 10971 10972 10973 10974 10976 10976 10977 10978 10978 10979 10981 10982
10894 10893 10892 10893 10894 10895 10894 10892 10892 10892 10893 10893 10891 10892 10893 10893 10895 10895 10897 10898 10895 10894 10898 10897 10893 10892 10896 10899 10899 10899 10899 10898 10896 10897 10897 10899 10903 10905 10905 10909 10913 10913 10915 10919 10924 10928 10929 10929 10933 10934 10934 10935 10940 10946 10950 10950 10952 10952 10952 10953 10953 10955 10957 10958 10961 10962 10962 10963 10963 10963 10964 10964 10965 10966 10967 10968 10970 10972 10973 10974 10975 10976 10977 10978 10978 10979 10980 10981
10889 10888 10886 10886 10887 10888 10889 10887 10886 10886 10887 10886 10884 10886 10887 10887 10889 10890 10891 10895 10894 10889 10892 10894 10890 10887 10889 10893 10894 10895 10896 10894 10892 10893 10893 10894 10897 10897 10898 10902 10904 10904 10908 10912 10917 10922 10922 10922 10926 10928 10930 10930 10933 10940 10945 10946 10948 10950 10949 10948 10949 10951 10953 10954 10957 10960 10960 10960 10961 10962 10963 10963 10964 10965 10966 10968 10969 10971 10973 10974 10975 10976 10977 10978 10979 10979 10980 10981
10882 10882 10880 10879 10880 10880 10882 10882 10880 10880 10882 10879 10878 10879 10880 10881 10882 10883 10884 10889 10891 10888 10887 10887 10887 10885 10883 10886 10888 10889 10891 10890 10888 10890 10890 10889 10890 10890 10893 10895 10896 10898 10901 10906 10911 10914 10912 10914 10920 10923 10924 10926 10928 10934 10939 10940 10943 10946 10944 10943 10944 10946 10948 10950 10953 10956 10957 10957 10959 10960 10961 10962 10963 10964 10965 10967 10968 10969 10971 10972 10973 10975 10976 10977 10978 10979 10979 10980
10875 10875 10874 10871 10873 10873 10873 10875 10875 10874 10874 10872 10871 10873 10874 10874 10875 10876 10878 10882 10885 10884 10883 10880 10881 10882 10880 10880 10881 10882 10885 10884 10884 10887 10886 10886 10885 10885 10887 10888 10888 10891 10894 10900 10904 10904 10904 10908 10914 10916 10918 10923 10925 10927 10929 10933 10939 10940 10938 10938 10939 10940 10943 10945 10948 10951 10953 10954 10957 10958 10959 10961 10962 10962 10964 10965 10966 10967 10969 10971 10972 10973 10975 10976 10977 10978 10979 10979
10867 10868 10867 10864 10865 10867 10864 10866 10869 10868 10867 10866 10865 10866 10866 10867 10869 10869 10871 10877 10877 10875 10878 10877 10874 10874 10875 10877 10876 10875 10879 10878 10879 10883 10881 10880 10883 10882 10882 10881 10882 10885 10888 10892 10895 10895 10898 10901 10905 10910 10914 10917 10919 10918 10919 10927 10933 10933 10932 10934 10935 10935 10938 10941 10943 10946 10948 10951 10955 10956 10958 10960 10960 10961 10962 10963 10964 10965 10966 10968 10969 10971 10973 10974 10975 10976 10977 10978
10860 10860 10860 10857 10857 10859 10857 10857 10860 10860 10859 10859 10858 10858 10859 10860 10862 10863 10866 10871 10869 10865 10870 10874 10868 10864 10867 10870 10870 10869 10872 10872 10873 10878 10875 10874 10879 10879 10877 10877 10878 10879 10881 10885 10887 10888 10890 10893 10898 10905 10907 10908 10910 10911 10913 10919 10925 10926 10928 10930 10930 10931 10933 10936 10939 10941 10943 10949 10953 10954 10955 10958 10959 10960 10961 10962 10962 10962 10964 10966 10966 10968 10970 10972 10973 10974 10975 10976
10852 10851 10852 10850 10848 10849 10848 10849 10850 10850 10851 10852 10850 10850 10852 10853 10855 10859 10862 10862 10859 10857 10861 10864 10861 10859 10859 10860 10861 10863 10866 10865 10867 10872 10871 10868 10872 10874 10873 10874 10874 10874 10875 10877 10879 10880 10883 10887 10892 10896 10898 10899 10902 10905 10909 10910 10913 10920 10925 10926 10927 10927 10928 10932 10935 10937 10942 10948 10950 10950 10952 10955 10957 10958 10958 10959 10959 10961 10963 10964 10964 10965 10967 10969 10970 10972 10973 10974
10844 10843 10842 10842 10841 10838 10839 10842 10841 10839 10842 10842 10841 10843 10843 10845 10850 10855 10855 10851 10849 10850 10850 10852 10854 10853 10852 10851 10853 10856 10857 10857 10860 10865 10865 10862 10865 10868 10868 10869 10870 10870 10870 10870 10871 10873 10877 10881 10884 10887 10890 10893 10895 10899 10903 10902 10905 10914 10919 10919 10921 10923 10924 10928 10932 10935 10940 10944 10945 10945 10948 10952 10955 10955 10955 10956 10957 10959 10961 10962 10963 10964 10965 10967 10968 10970 10971 10972
10834 10834 10832 10832 10832 10829 10828 10832 10832 10830 10833 10832 10832 10834 10833 10838 10848 10849 10845 10841 10841 10841 10838 10841 10847 10846 10845 10844 10844 10847 10849 10850 10852 10857 10858 10856 10859 10862 10862 10863 10864 10865 10864 10864 10866 10868 10871 10874 10877 10881 10882 10884 10888 10891 10893 10895 10899 10905 10908 10911 10917 10920 10921 10925 10928 10931 10935 10938 10939 10940 10943 10949 10952 10950 10951 10954 10954 10956 10958 10959 10961 10962 10963 10964 10965 10967 10969 10970
10823 10823 10822 10821 10821 10820 10817 10819 10821 10820 10821 10822 10823 10825 10825 10834 10842 10838 10834 10833 10831 10829 10827 10831 10836 10837 10839 10839 10836 10837 10841 10843 10843 10847 10850 10850 10852 10856 10857 10856 10857 10859 10858 10859 10862 10863 10864 10867 10870 10872 10872 10874 10879 10883 10884 10885 10888 10894 10896 10900 10909 10914 10916 10920 10923 10924 10927 10929 10931 10934 10941 10946 10946 10945 10946 10948 10950 10951 10954 10956 10957 10959 10961 10962 10963 10965 10966 10967
10812 10812 10811 10809 10809 10810 10808 10807 10808 10807 10808 10810 10812 10815 10821 10830 10830 10823 10824 10824 10820 10819 10817 10819 10824 10827 10831 10833 10831 10828 10830 10834 10835 10836 10841 10844 10846 10848 10850 10850 10851 10852 10852 10853 10857 10857 10859 10862 10862 10863 10865 10868 10871 10874 10875 10875 10881 10889 10887 10890 10904 10913 10914 10915 10916 10916 10916 10919 10925 10931 10937 10939 10938 10940 10941 10943 10946 10948 10950 10953 10954 10956 10958 10959 10961 10962 10964 10964
10801 10800 10799 10798 10797 10799 10798 10796 10794 10794 10796 10797 10799 10807 10816 10819 10816 10812 10813 10812 10810 10811 10807 10806 10813 10818 10819 10822 10826 10824 10821 10823 10825 10827 10832 10837 10839 10841 10844 10845 10844 10844 10846 10846 10848 10851 10854 10856 10855 10856 10861 10863 10863 10864 10866 10869 10875 10880 10879 10886 10902 10908 10906 10907 10909 10908 10908 10914 10922 10927 10930 10932 10933 10936 10937 10939 10943 10944 10946 10949 10951 10953 10955 10955 10958 10960 10961 10961
10789 10788 10785 10785 10787 10787 10787 10783 10779 10780 10783 10783 10790 10801 10805 10803 10802 10801 10801 10800 10798 10799 10798 10797 10802 10808 10809 10809 10815 10818 10815 10812 10813 10817 10822 10827 10832 10834 10835 10837 10839 10838 10839 10840 10840 10843 10847 10848 10849 10852 10854 10856 10855 10855 10859 10864 10867 10870 10877 10885 10890 10891 10896 10900 10901 10901 10904 10912 10919 10921 10923 10925 10927 10931 10933 10935 10939 10941 10943 10945 10947 10950 10950 10952 10955 10957 10958 10957
10776 10774 10769 10772 10777 10775 10772 10769 10765 10767 10769 10771 10781 10790 10790 10790 10790 10789 10788 10787 10786 10786 10787 10790 10793 10796 10797 10798 10803 10806 10805 10804 10805 10805 10809 10816 10824 10828 10827 10828 10832 10833 10833 10832 10831 10835 10839 10840 10843 10846 10848 10848 10848 10849 10854 10860 10862 10864 10871 10875 10874 10880 10890 10893 10893 10898 10903 10910 10913 10913 10917 10920 10921 10927 10930 10930 10934 10937 10938 10940 10943 10945 10947 10948 10950 10953 10956 10955
10763 10760 10753 10757 10763 10761 10759 10755 10752 10753 10755 10759 10770 10774 10774 10776 10777 10776 10775 10773 10774 10774 10775 10781 10783 10783 10785 10789 10792 10793 10792 10795 10797 10796 10798 10804 10811 10819 10821 10820 10822 10825 10826 10825 10824 10826 10829 10832 10835 10837 10841 10843 10844 10847 10852 10855 10856 10855 10856 10860 10865 10873 10881 10882 10884 10892 10898 10901 10904 10907 10912 10916 10920 10923 10924 10924 10928 10932 10933 10935 10939 10941 10942 10944 10944 10947 10952 10953
10750 10746 10738 10740 10747 10747 10747 10742 10737 10739 10741 10747 10755 10757 10757 10760 10761 10762 10763 10761 10760 10762 10765 10769 10770 10770 10774 10778 10781 10782 10779 10781 10786 10787 10789 10794 10799 10805 10811 10813 10813 10815 10817 10818 10818 10817 10819 10825 10828 10827 10832 10840 10844 10847 10847 10843 10844 10844 10844 10850 10858 10865 10870 10870 10874 10883 10890 10892 10897 10902 10906 10912 10916 10917 10917 10919 10922 10926 10927 10929 10934 10936 10937 10940 10939 10940 10946 10949
10735 10732 10723 10723 10729 10731 10732 10727 10724 10725 10727 10733 10740 10740 10741 10744 10745 10747 10748 10747 10746 10748 10752 10754 10756 10760 10763 10765 10768 10770 10768 10767 10773 10777 10779 10784 10789 10793 10798 10803 10805 10804 10805 10810 10813 10811 10809 10815 10821 10818 10823 10836 10841 10841 10838 10833 10833 10838 10839 10843 10849 10855 10859 10859 10862 10874 10883 10886 10892 10896 10901 10906 10909 10910 10913 10913 10914 10920 10921 10923 10929 10931 10932 10935 10934 10934 10940 10945
10719 10717 10709 10706 10710 10713 10713 10713 10713 10711 10711 10719 10723 10723 10725 10728 10730 10733 10733 10731 10732 10735 10736 10737 10744 10749 10750 10752 10754 10755 10756 10756 10758 10764 10769 10774 10780 10783 10785 10790 10794 10793 10795 10800 10806 10806 10801 10802 10811 10815 10817 10826 10832 10832 10832 10829 10828 10831 10835 10839 10841 10845 10851 10854 10859 10869 10875 10879 10885 10888 10893 10900 10902 10904 10907 10907 10908 10913 10915 10918 10923 10926 10928 10930 10928 10928 10934 10939
10701 10702 10696 10687 10687 10693 10695 10698 10701 10695 10694 10703 10705 10705 10709 10712 10715 10718 10717 10716 10717 10719 10718 10721 10729 10733 10736 10740 10740 10739 10742 10744 10746 10753 10758 10762 10766 10770 10775 10779 10781 10782 10784 10789 10795 10798 10794 10793 10801 10810 10812 10815 10820 10825 10827 10826 10824 10825 10830 10836 10836 10837 10845 10850 10853 10857 10859 10867 10876 10879 10885 10894 10897 10896 10899 10902 10903 10905 10907 10912 10917 10920 10923 10923 10922 10924 10928 10932
10681 10684 10682 10670 10663 10669 10675 10680 10684 10678 10675 10682 10686 10689 10693 10696 10699 10701 10702 10702 10702 10702 10702 10705 10711 10714 10718 10723 10724 10725 10727 10729 10736 10742 10746 10749 10750 10755 10765 10768 10767 10771 10774 10777 10783 10787 10789 10788 10790 10798 10807 10808 10810 10817 10823 10822 10820 10821 10824 10827 10828 10830 10834 10838 10841 10840 10843 10856 10868 10871 10878 10888 10891 10890 10891 10894 10896 10897 10900 10905 10910 10915 10918 10917 10917 10919 10922 10926
10661 10663 10663 10654 10643 10645 10654 10660 10662 10658 10655 10660 10666 10673 10677 10678 10682 10685 10684 10685 10686 10686 10686 10688 10693 10696 10698 10703 10707 10711 10712 10714 10722 10729 10734 10736 10734 10740 10751 10754 10755 10759 10761 10764 10771 10776 10782 10783 10781 10787 10800 10804 10803 10808 10814 10813 10811 10814 10816 10816 10819 10822 10823 10825 10827 10827 10833 10849 10858 10861 10871 10881 10883 10882 10883 10886 10889 10891 10894 10898 10901 10907 10910 10910 10910 10913 10915 10920
10640 10641 10641 10634 10624 10625 10632 10636 10637 10634 10634 10639 10646 10654 10658 10659 10663 10665 10663 10666 10671 10669 10666 10669 10676 10678 10679 10684 10689 10694 10698 10700 10704 10712 10719 10723 10722 10726 10736 10740 10741 10743 10748 10757 10762 10765 10770 10774 10776 10782 10790 10796 10798 10797 10799 10801 10803 10807 10810 10811 10812 10813 10815 10815 10815 10818 10829 10840 10844 10851 10864 10871 10872 10874 10877 10881 10884 10886 10889 10893 10895 10898 10902 10903 10903 10905 10908 10914
10615 10617 10617 10611 10607 10608 10609 10609 10610 10609 10610 10615 10622 10630 10637 10639 10641 10643 10641 10645 10651 10647 10644 10652 10660 10661 10663 10667 10669 10673 10678 10681 10685 10693 10702 10709 10712 10714 10719 10725 10726 10727 10738 10750 10752 10752 10758 10764 10771 10778 10780 10785 10790 10789 10786 10790 10797 10801 10804 10805 10805 10805 10806 10806 10807 10816 10825 10827 10831 10846 10857 10860 10863 10866 10869 10873 10876 10878 10884 10887 10888 10888 10892 10896 10896 10897 10902 10907
10587 10588 10590 10587 10586 10588 10587 10582 10583 10583 10583 10588 10594 10605 10614 10615 10617 10620 10618 10620 10625 10624 10626 10636 10641 10639 10641 10644 10645 10651 10658 10662 10668 10678 10687 10695 10700 10702 10704 10709 10714 10717 10727 10738 10739 10740 10748 10755 10762 10770 10772 10774 10779 10780 10778 10781 10788 10793 10794 10797 10799 10798 10797 10798 10803 10812 10815 10814 10824 10840 10845 10847 10853 10856 10859 10865 10868 10870 10876 10879 10880 10881 10883 10887 10889 10891 10895 10900
10557 10556 10560 10561 10560 10563 10563 10558 10555 10554 10555 10558 10562 10573 10586 10589 10590 10594 10593 10593 10596 10598 10604 10614 10616 10615 10620 10626 10631 10637 10642 10646 10652 10663 10671 10676 10682 10688 10690 10693 10703 10710 10715 10722 10727 10731 10738 10747 10754 10759 10763 10765 10767 10770 10773 10774 10777 10781 10785 10790 10792 10792 10791 10792 10797 10803 10805 10806 10816 10826 10828 10834 10843 10847 10851 10856 10859 10862 10867 10870 10871 10872 10873 10877 10882 10885 10890 10892
10527 10525 10528 10531 10532 10533 10533 10531 10528 10525 10526 10527 10528 10537 10550 10557 10560 10562 10562 10563 10566 10572 10577 10584 10591 10596 10604 10612 10615 10616 10620 10627 10638 10650 10656 10658 10665 10674 10677 10682 10694 10700 10701 10707 10716 10720 10727 10738 10745 10748 10750 10755 10759 10762 10764 10766 10768 10770 10775 10781 10785 10787 10788 10789 10791 10795 10797 10800 10806 10810 10814 10825 10835 10839 10841 10845 10849 10855 10858 10859 10862 10864 10865 10869 10874 10877 10882 10884
10497 10496 10496 10498 10501 10501 10499 10498 10497 10495 10495 10496 10497 10501 10510 10519 10524 10526 10529 10531 10535 10543 10546 10550 10562 10574 10583 10588 10588 10590 10600 10614 10626 10638 10643 10646 10653 10661 10666 10673 10682 10685 10687 10696 10704 10707 10715 10727 10734 10735 10737 10746 10752 10753 10754 10757 10756 10756 10765 10776 10782 10783 10783 10783 10784 10786 10788 10792 10795 10795 10801 10817 10827 10827 10828 10833 10839 10844 10846 10848 10853 10856 10858 10861 10866 10871 10875 10877
10468 10468 10466 10467 10470 10470 10466 10465 10466 10466 10467 10466 10466 10470 10476 10483 10488 10492 10498 10501 10506 10512 10515 10519 10534 10548 10556 10560 10563 10571 10587 10600 10609 10620 10628 10632 10638 10645 10650 10659 10668 10672 10675 10682 10691 10697 10705 10716 10721 10722 10727 10737 10742 10744 10747 10743 10738 10748 10768 10776 10774 10772 10770 10769 10772 10777 10779 10781 10782 10782 10792 10809 10815 10811 10813 10821 10826 10830 10834 10839 10846 10850 10850 10854 10860 10866 10869 10870